Time,TemperatureF,DewpointF,PressureIn,WindDirection,WindDirectionDegrees,WindSpeedMPH,WindSpeedGustMPH,Humidity,HourlyPrecipIn,Conditions,Clouds,dailyrainin,SoftwareType,DateUTC
2013-09-16 00:01:00,44.8,41.2,30.17,South,180,0.0,-999.0,87,-99.99,,,0.00,Acu-Link.com,2013-09-16 05:01:00,
2013-09-16 00:16:00,44.6,41.3,30.18,ESE,112,0.0,-999.0,88,-99.99,,,0.00,Acu-Link.com,2013-09-16 05:16:00,
2013-09-16 00:32:00,44.6,41.3,30.17,West,270,0.0,-999.0,88,-99.99,,,0.00,Acu-Link.com,2013-09-16 05:32:00,
2013-09-16 00:47:00,44.6,41.3,30.17,West,270,0.0,-999.0,88,-99.99,,,0.00,Acu-Link.com,2013-09-16 05:47:00,
2013-09-16 01:02:00,44.4,41.1,30.18,SW,225,0.0,-999.0,88,-99.99,,,0.00,Acu-Link.com,2013-09-16 06:02:00,
2013-09-16 01:17:00,44.1,40.8,30.18,NW,315,0.0,-999.0,88,-99.99,,,0.00,Acu-Link.com,2013-09-16 06:17:00,
2013-09-16 01:32:00,43.9,40.6,30.19,WNW,292,0.0,-999.0,88,-99.99,,,0.00,Acu-Link.com,2013-09-16 06:32:00,
2013-09-16 01:47:00,43.5,40.2,30.19,WNW,292,0.0,-999.0,88,-99.99,,,0.00,Acu-Link.com,2013-09-16 06:47:00,
2013-09-16 02:03:00,43.2,39.9,30.19,WNW,292,0.0,-999.0,88,-99.99,,,0.00,Acu-Link.com,2013-09-16 07:03:00,
2013-09-16 02:18:00,42.8,39.5,30.19,WNW,292,0.0,-999.0,88,-99.99,,,0.00,Acu-Link.com,2013-09-16 07:18:00,
2013-09-16 02:33:00,42.6,39.3,30.19,WNW,292,0.0,-999.0,88,-99.99,,,0.00,Acu-Link.com,2013-09-16 07:33:00,
2013-09-16 02:48:00,42.4,39.4,30.19,WNW,292,0.0,-999.0,89,-99.99,,,0.00,Acu-Link.com,2013-09-16 07:48:00,
2013-09-16 03:04:00,42.1,39.1,30.20,WNW,292,0.0,-999.0,89,-99.99,,,0.00,Acu-Link.com,2013-09-16 08:04:00,
2013-09-16 03:19:00,41.9,38.9,30.20,WNW,292,0.0,-999.0,89,-99.99,,,0.00,Acu-Link.com,2013-09-16 08:19:00,
2013-09-16 03:35:00,41.7,38.7,30.20,WNW,292,0.0,-999.0,89,-99.99,,,0.00,Acu-Link.com,2013-09-16 08:35:00,
2013-09-16 03:50:00,41.5,38.5,30.20,WNW,292,0.0,-999.0,89,-99.99,,,0.00,Acu-Link.com,2013-09-16 08:50:00,
2013-09-16 04:05:00,41.4,38.4,30.20,West,270,0.0,-999.0,89,-99.99,,,0.00,Acu-Link.com,2013-09-16 09:05:00,
2013-09-16 04:20:00,41.2,38.2,30.21,West,270,0.0,-999.0,89,-99.99,,,0.00,Acu-Link.com,2013-09-16 09:20:00,
2013-09-16 04:35:00,41.4,38.4,30.21,West,270,0.0,-999.0,89,-99.99,,,0.00,Acu-Link.com,2013-09-16 09:35:00,
2013-09-16 04:50:00,42.1,39.4,30.22,West,270,0.0,-999.0,90,-99.99,,,0.00,Acu-Link.com,2013-09-16 09:50:00,
2013-09-16 05:06:00,42.6,39.9,30.22,West,270,0.0,-999.0,90,-99.99,,,0.00,Acu-Link.com,2013-09-16 10:06:00,
2013-09-16 05:21:00,43.2,40.5,30.22,West,270,0.0,-999.0,90,-99.99,,,0.00,Acu-Link.com,2013-09-16 10:21:00,
2013-09-16 05:36:00,43.5,40.8,30.22,NNW,337,0.0,-999.0,90,-99.99,,,0.00,Acu-Link.com,2013-09-16 10:36:00,
2013-09-16 05:51:00,43.5,40.8,30.22,NNW,337,0.0,-999.0,90,-99.99,,,0.00,Acu-Link.com,2013-09-16 10:51:00,
2013-09-16 06:07:00,43.0,40.3,30.22,NNW,337,0.0,-999.0,90,-99.99,,,0.00,Acu-Link.com,2013-09-16 11:07:00,
2013-09-16 06:22:00,42.6,39.9,30.23,WNW,292,0.0,-999.0,90,-99.99,,,0.00,Acu-Link.com,2013-09-16 11:22:00,
2013-09-16 06:37:00,42.1,39.4,30.23,NNW,337,0.0,-999.0,90,-99.99,,,0.00,Acu-Link.com,2013-09-16 11:37:00,
2013-09-16 06:52:00,41.9,39.2,30.23,North,0,0.0,-999.0,90,-99.99,,,0.00,Acu-Link.com,2013-09-16 11:52:00,
2013-09-16 07:07:00,41.9,39.2,30.23,East,90,0.0,-999.0,90,-99.99,,,0.00,Acu-Link.com,2013-09-16 12:07:00,
2013-09-16 07:22:00,41.7,39.0,30.23,West,270,0.0,-999.0,90,-99.99,,,0.00,Acu-Link.com,2013-09-16 12:22:00,
2013-09-16 07:37:00,41.7,39.0,30.24,SW,225,0.0,-999.0,90,-99.99,,,0.00,Acu-Link.com,2013-09-16 12:37:00,
2013-09-16 07:53:00,42.1,39.4,30.23,West,270,0.0,-999.0,90,-99.99,,,0.00,Acu-Link.com,2013-09-16 12:53:00,
2013-09-16 08:08:00,42.6,39.9,30.24,South,180,0.0,-999.0,90,-99.99,,,0.00,Acu-Link.com,2013-09-16 13:08:00,
2013-09-16 08:23:00,43.9,41.2,30.23,ENE,67,0.0,-999.0,90,-99.99,,,0.00,Acu-Link.com,2013-09-16 13:23:00,
2013-09-16 08:38:00,46.0,42.4,30.24,SSE,157,0.0,-999.0,87,-99.99,,,0.00,Acu-Link.com,2013-09-16 13:38:00,
2013-09-16 08:53:00,47.7,42.8,30.24,NE,45,2.7,-999.0,83,-99.99,,,0.00,Acu-Link.com,2013-09-16 13:53:00,
2013-09-16 09:08:00,49.1,42.5,30.25,ESE,112,1.7,-999.0,78,-99.99,,,0.00,Acu-Link.com,2013-09-16 14:08:00,
2013-09-16 09:24:00,50.2,41.9,30.25,East,90,2.2,-999.0,73,-99.99,,,0.00,Acu-Link.com,2013-09-16 14:24:00,
2013-09-16 09:39:00,51.3,41.9,30.24,South,180,1.7,-999.0,70,-99.99,,,0.00,Acu-Link.com,2013-09-16 14:39:00,
2013-09-16 09:54:00,51.8,41.2,30.24,ESE,112,2.2,-999.0,67,-99.99,,,0.00,Acu-Link.com,2013-09-16 14:54:00,
2013-09-16 10:09:00,51.6,41.4,30.24,East,90,3.7,-999.0,68,-99.99,,,0.00,Acu-Link.com,2013-09-16 15:09:00,
2013-09-16 10:24:00,52.5,42.2,30.24,SSE,157,3.7,-999.0,68,-99.99,,,0.00,Acu-Link.com,2013-09-16 15:24:00,
2013-09-16 10:40:00,53.1,41.6,30.24,ESE,112,2.2,-999.0,65,-99.99,,,0.00,Acu-Link.com,2013-09-16 15:40:00,
2013-09-16 10:55:00,53.6,43.3,30.24,South,180,2.7,-999.0,68,-99.99,,,0.00,Acu-Link.com,2013-09-16 15:55:00,
2013-09-16 11:10:00,54.1,43.8,30.24,SSE,157,1.7,-999.0,68,-99.99,,,0.00,Acu-Link.com,2013-09-16 16:10:00,
2013-09-16 11:25:00,54.9,43.8,30.23,East,90,3.2,-999.0,66,-99.99,,,0.00,Acu-Link.com,2013-09-16 16:25:00,
2013-09-16 11:40:00,55.2,42.8,30.23,NE,45,3.7,-999.0,63,-99.99,,,0.00,Acu-Link.com,2013-09-16 16:40:00,
2013-09-16 11:55:00,55.8,43.4,30.23,NE,45,2.2,-999.0,63,-99.99,,,0.00,Acu-Link.com,2013-09-16 16:55:00,
2013-09-16 12:11:00,56.5,44.5,30.23,SE,135,2.2,-999.0,64,-99.99,,,0.00,Acu-Link.com,2013-09-16 17:11:00,
2013-09-16 12:26:00,56.8,44.3,30.23,SSE,157,2.2,-999.0,63,-99.99,,,0.00,Acu-Link.com,2013-09-16 17:26:00,
2013-09-16 12:41:00,57.6,44.3,30.22,NE,45,3.2,-999.0,61,-99.99,,,0.00,Acu-Link.com,2013-09-16 17:41:00,
2013-09-16 12:56:00,58.3,45.3,30.22,NNE,22,2.7,-999.0,62,-99.99,,,0.00,Acu-Link.com,2013-09-16 17:56:00,
2013-09-16 13:11:00,58.6,46.0,30.22,ESE,112,3.2,-999.0,63,-99.99,,,0.00,Acu-Link.com,2013-09-16 18:11:00,
2013-09-16 13:27:00,61.2,48.1,30.21,East,90,2.2,-999.0,62,-99.99,,,0.00,Acu-Link.com,2013-09-16 18:27:00,
2013-09-16 13:42:00,60.6,47.1,30.20,NE,45,1.1,-999.0,61,-99.99,,,0.00,Acu-Link.com,2013-09-16 18:42:00,
2013-09-16 13:57:00,61.2,46.3,30.19,ESE,112,2.7,-999.0,58,-99.99,,,0.00,Acu-Link.com,2013-09-16 18:57:00,
2013-09-16 14:12:00,61.9,46.5,30.19,WSW,247,1.1,-999.0,57,-99.99,,,0.00,Acu-Link.com,2013-09-16 19:12:00,
2013-09-16 14:27:00,62.4,46.0,30.18,South,180,1.7,-999.0,55,-99.99,,,0.00,Acu-Link.com,2013-09-16 19:27:00,
2013-09-16 14:43:00,64.6,47.6,30.17,ESE,112,2.2,-999.0,54,-99.99,,,0.00,Acu-Link.com,2013-09-16 19:43:00,
2013-09-16 14:58:00,63.9,45.9,30.16,SE,135,0.0,-999.0,52,-99.99,,,0.00,Acu-Link.com,2013-09-16 19:58:00,
2013-09-16 15:13:00,64.2,46.2,30.16,SSE,157,1.7,-999.0,52,-99.99,,,0.00,Acu-Link.com,2013-09-16 20:13:00,
2013-09-16 15:28:00,64.9,46.3,30.15,West,270,2.7,-999.0,51,-99.99,,,0.00,Acu-Link.com,2013-09-16 20:28:00,
2013-09-16 15:44:00,64.6,46.1,30.15,South,180,1.1,-999.0,51,-99.99,,,0.00,Acu-Link.com,2013-09-16 20:44:00,
2013-09-16 15:59:00,63.7,46.2,30.14,ESE,112,4.2,-999.0,53,-99.99,,,0.00,Acu-Link.com,2013-09-16 20:59:00,
2013-09-16 16:14:00,63.7,46.7,30.13,WSW,247,2.2,-999.0,54,-99.99,,,0.00,Acu-Link.com,2013-09-16 21:14:00,
2013-09-16 16:29:00,63.0,46.1,30.12,SSE,157,4.2,-999.0,54,-99.99,,,0.00,Acu-Link.com,2013-09-16 21:29:00,
2013-09-16 16:44:00,63.5,46.6,30.11,SE,135,4.2,-999.0,54,-99.99,,,0.00,Acu-Link.com,2013-09-16 21:44:00,
2013-09-16 16:59:00,63.5,48.5,30.11,SSE,157,2.7,-999.0,58,-99.99,,,0.00,Acu-Link.com,2013-09-16 21:59:00,
2013-09-16 17:14:00,63.5,47.5,30.11,East,90,1.7,-999.0,56,-99.99,,,0.00,Acu-Link.com,2013-09-16 22:14:00,
2013-09-16 17:30:00,62.8,47.3,30.10,ENE,67,3.2,-999.0,57,-99.99,,,0.00,Acu-Link.com,2013-09-16 22:30:00,
2013-09-16 17:45:00,62.8,47.8,30.10,SE,135,1.7,-999.0,58,-99.99,,,0.00,Acu-Link.com,2013-09-16 22:45:00,
2013-09-16 18:00:00,62.4,47.9,30.10,SSE,157,3.7,-999.0,59,-99.99,,,0.00,Acu-Link.com,2013-09-16 23:00:00,
2013-09-16 18:15:00,62.1,48.5,30.09,NE,45,1.7,-999.0,61,-99.99,,,0.00,Acu-Link.com,2013-09-16 23:15:00,
2013-09-16 18:31:00,61.7,49.0,30.09,ESE,112,2.2,-999.0,63,-99.99,,,0.00,Acu-Link.com,2013-09-16 23:31:00,
2013-09-16 18:46:00,61.3,49.0,30.09,SE,135,2.2,-999.0,64,-99.99,,,0.00,Acu-Link.com,2013-09-16 23:46:00,
2013-09-16 19:01:00,60.8,49.0,30.08,ESE,112,1.1,-999.0,65,-99.99,,,0.00,Acu-Link.com,2013-09-17 00:01:00,
2013-09-16 19:16:00,59.5,49.3,30.07,SSE,157,0.0,-999.0,69,-99.99,,,0.00,Acu-Link.com,2013-09-17 00:16:00,
2013-09-16 19:31:00,58.6,50.0,30.07,East,90,0.0,-999.0,73,-99.99,,,0.00,Acu-Link.com,2013-09-17 00:31:00,
2013-09-16 19:47:00,56.8,49.3,30.07,East,90,0.0,-999.0,76,-99.99,,,0.00,Acu-Link.com,2013-09-17 00:47:00,
2013-09-16 20:02:00,55.4,48.3,30.07,East,90,0.0,-999.0,77,-99.99,,,0.00,Acu-Link.com,2013-09-17 01:02:00,
2013-09-16 20:17:00,54.3,47.9,30.07,East,90,0.0,-999.0,79,-99.99,,,0.00,Acu-Link.com,2013-09-17 01:17:00,
2013-09-16 20:32:00,53.6,47.6,30.07,ESE,112,0.0,-999.0,80,-99.99,,,0.00,Acu-Link.com,2013-09-17 01:32:00,
2013-09-16 20:47:00,52.7,47.0,30.07,ESE,112,0.0,-999.0,81,-99.99,,,0.00,Acu-Link.com,2013-09-17 01:47:00,
2013-09-16 21:02:00,52.3,47.0,30.07,ENE,67,0.0,-999.0,82,-99.99,,,0.00,Acu-Link.com,2013-09-17 02:02:00,
2013-09-16 21:17:00,52.2,47.2,30.07,ESE,112,0.0,-999.0,83,-99.99,,,0.00,Acu-Link.com,2013-09-17 02:17:00,
2013-09-16 21:32:00,52.0,47.3,30.07,ENE,67,0.0,-999.0,84,-99.99,,,0.00,Acu-Link.com,2013-09-17 02:32:00,
2013-09-16 21:48:00,52.0,47.3,30.06,NE,45,0.0,-999.0,84,-99.99,,,0.00,Acu-Link.com,2013-09-17 02:48:00,
2013-09-16 22:03:00,52.0,47.3,30.06,ESE,112,0.0,-999.0,84,-99.99,,,0.00,Acu-Link.com,2013-09-17 03:03:00,
2013-09-16 22:18:00,52.0,47.6,30.07,East,90,0.0,-999.0,85,-99.99,,,0.00,Acu-Link.com,2013-09-17 03:18:00,
2013-09-16 22:33:00,52.3,47.9,30.06,ESE,112,0.0,-999.0,85,-99.99,,,0.00,Acu-Link.com,2013-09-17 03:33:00,
2013-09-16 22:48:00,52.3,47.9,30.06,ENE,67,0.0,-999.0,85,-99.99,,,0.00,Acu-Link.com,2013-09-17 03:48:00,
2013-09-16 23:04:00,52.5,48.1,30.06,ENE,67,0.0,-999.0,85,-99.99,,,0.00,Acu-Link.com,2013-09-17 04:04:00,
2013-09-16 23:19:00,52.3,47.9,30.05,NE,45,0.0,-999.0,85,-99.99,,,0.00,Acu-Link.com,2013-09-17 04:19:00,
2013-09-16 23:34:00,52.5,48.1,30.06,NNE,22,0.0,-999.0,85,-99.99,,,0.00,Acu-Link.com,2013-09-17 04:34:00,
2013-09-16 23:49:00,52.3,47.9,30.06,East,90,0.0,-999.0,85,-99.99,,,0.00,Acu-Link.com,2013-09-17 04:49:00,